TimeEDT,TemperatureF,Dew PointF,Humidity,Sea Level PressureIn,VisibilityMPH,Wind Direction,Wind SpeedMPH,Gust SpeedMPH,PrecipitationIn,Events,Conditions,WindDirDegrees,DateUTC
12:14 AM,77.0,75.2,94,29.92,10.0,SE,5.8,-,0.00,,Scattered Clouds,140,2013-06-29 04:14:00
12:53 AM,78.1,77.0,96,29.92,10.0,Calm,Calm,-,0.00,,Clear,0,2013-06-29 04:53:00
1:53 AM,79.0,77.0,94,29.91,10.0,Calm,Calm,-,N/A,,Partly Cloudy,0,2013-06-29 05:53:00
2:31 AM,78.8,78.8,100,29.89,10.0,Calm,Calm,-,N/A,,Mostly Cloudy,0,2013-06-29 06:31:00
2:42 AM,80.6,77.0,89,29.89,10.0,Calm,Calm,-,N/A,,Scattered Clouds,0,2013-06-29 06:42:00
2:53 AM,80.1,77.0,90,29.89,10.0,South,4.6,-,N/A,,Scattered Clouds,190,2013-06-29 06:53:00
3:53 AM,79.0,77.0,94,29.88,10.0,West,4.6,-,N/A,,Partly Cloudy,260,2013-06-29 07:53:00
4:43 AM,78.8,75.2,89,29.89,10.0,SSE,9.2,-,0.00,Rain,Light Rain,160,2013-06-29 08:43:00
4:53 AM,78.1,73.9,87,29.91,3.0,South,15.0,19.6,0.09,Rain,Heavy Rain,190,2013-06-29 08:53:00
4:56 AM,77.0,75.2,94,29.91,1.8,SSW,10.4,19.6,0.11,Rain,Heavy Rain,200,2013-06-29 08:56:00
5:10 AM,77.0,75.2,94,29.90,2.5,WSW,3.5,-,0.29,Rain,Heavy Rain,240,2013-06-29 09:10:00
5:17 AM,75.2,75.2,100,29.90,3.0,NNE,3.5,-,0.30,Rain-Thunderstorm,Thunderstorms and Rain,20,2013-06-29 09:17:00
5:35 AM,77.0,75.2,94,29.91,10.0,SE,16.1,19.6,0.31,Rain-Thunderstorm,Light Rain,140,2013-06-29 09:35:00
5:42 AM,75.2,73.4,94,29.91,10.0,East,9.2,19.6,0.31,Thunderstorm,Thunderstorm,100,2013-06-29 09:42:00
5:53 AM,75.9,73.9,94,29.91,1.8,SE,8.1,-,0.46,Rain-Thunderstorm,Heavy Thunderstorms and Rain,130,2013-06-29 09:53:00
6:00 AM,77.0,75.2,94,29.90,2.0,East,4.6,-,0.11,Rain-Thunderstorm,Heavy Thunderstorms and Rain,90,2013-06-29 10:00:00
6:06 AM,75.2,75.2,100,29.90,3.0,East,4.6,-,0.12,Rain,Rain,80,2013-06-29 10:06:00
6:53 AM,75.0,75.0,100,29.91,10.0,NNW,4.6,-,0.12,,Clear,330,2013-06-29 10:53:00
7:53 AM,78.1,78.1,100,29.91,10.0,Calm,Calm,-,N/A,,Clear,0,2013-06-29 11:53:00
8:53 AM,82.0,77.0,85,29.91,10.0,South,4.6,-,N/A,,Scattered Clouds,170,2013-06-29 12:53:00
9:53 AM,84.9,75.9,74,29.90,10.0,SE,10.4,-,N/A,,Scattered Clouds,140,2013-06-29 13:53:00
10:53 AM,86.0,77.0,74,29.90,10.0,SSE,9.2,-,N/A,,Scattered Clouds,150,2013-06-29 14:53:00
11:53 AM,86.0,75.0,70,29.91,10.0,SE,9.2,-,N/A,,Clear,130,2013-06-29 15:53:00
12:53 PM,87.1,75.9,69,29.89,10.0,SSE,11.5,18.4,N/A,,Clear,150,2013-06-29 16:53:00
1:53 PM,88.0,75.9,67,29.88,10.0,SE,16.1,-,N/A,,Scattered Clouds,140,2013-06-29 17:53:00
2:53 PM,88.0,75.9,67,29.86,10.0,SSE,17.3,-,0.00,,Partly Cloudy,160,2013-06-29 18:53:00
3:53 PM,84.9,75.9,74,29.86,10.0,South,12.7,-,N/A,,Mostly Cloudy,180,2013-06-29 19:53:00
4:53 PM,84.9,75.0,72,29.86,10.0,SSW,11.5,20.7,N/A,,Mostly Cloudy,210,2013-06-29 20:53:00
5:53 PM,80.1,75.9,87,29.88,8.0,West,3.5,-,0.01,Rain,Light Rain,280,2013-06-29 21:53:00
6:53 PM,82.0,77.0,85,29.87,10.0,SW,5.8,-,0.00,,Scattered Clouds,230,2013-06-29 22:53:00
7:53 PM,81.0,73.9,79,29.89,10.0,SW,6.9,-,N/A,,Scattered Clouds,220,2013-06-29 23:53:00
8:53 PM,81.0,75.0,82,29.90,10.0,SSW,4.6,-,0.00,,Mostly Cloudy,200,2013-06-30 00:53:00
9:53 PM,82.0,75.9,82,29.92,10.0,SW,4.6,-,N/A,,Mostly Cloudy,220,2013-06-30 01:53:00
10:23 PM,80.6,75.2,84,29.91,10.0,Calm,Calm,-,N/A,,Mostly Cloudy,0,2013-06-30 02:23:00
10:33 PM,80.6,75.2,84,29.91,10.0,SSW,3.5,-,N/A,,Scattered Clouds,200,2013-06-30 02:33:00
10:53 PM,81.0,75.9,85,29.91,10.0,SSW,4.6,-,N/A,,Clear,200,2013-06-30 02:53:00
11:53 PM,80.1,77.0,90,29.91,10.0,South,5.8,-,N/A,,Clear,180,2013-06-30 03:53:00